TimePDT,TemperatureF,Dew PointF,Humidity,Sea Level PressureIn,VisibilityMPH,Wind Direction,Wind SpeedMPH,Gust SpeedMPH,PrecipitationIn,Events,Conditions,WindDirDegrees,DateUTC
12:56 AM,55.0,37.9,53,30.08,10.0,North,4.6,-,N/A,,Clear,10,2013-10-03 07:56:00
1:56 AM,55.9,36.0,47,30.09,10.0,NW,13.8,20.7,N/A,,Clear,320,2013-10-03 08:56:00
2:56 AM,55.0,36.0,49,30.10,10.0,NNW,10.4,18.4,N/A,,Clear,330,2013-10-03 09:56:00
3:56 AM,51.1,37.9,61,30.09,10.0,NNE,5.8,-,N/A,,Clear,30,2013-10-03 10:56:00
4:56 AM,48.9,37.9,66,30.10,10.0,Calm,Calm,-,N/A,,Clear,0,2013-10-03 11:56:00
5:56 AM,46.9,37.0,68,30.11,10.0,WNW,3.5,-,N/A,,Clear,300,2013-10-03 12:56:00
6:56 AM,46.0,37.0,71,30.12,10.0,Calm,Calm,-,N/A,,Clear,0,2013-10-03 13:56:00
7:56 AM,46.9,37.9,71,30.13,10.0,Calm,Calm,-,N/A,,Clear,0,2013-10-03 14:56:00
8:56 AM,54.0,37.9,55,30.14,10.0,NNW,4.6,-,N/A,,Clear,340,2013-10-03 15:56:00
9:56 AM,60.1,36.0,41,30.14,10.0,North,9.2,-,N/A,,Clear,360,2013-10-03 16:56:00
10:56 AM,62.1,35.1,37,30.13,10.0,North,10.4,-,N/A,,Clear,350,2013-10-03 17:56:00
11:56 AM,66.9,30.9,26,30.10,10.0,NNW,10.4,-,N/A,,Clear,330,2013-10-03 18:56:00
12:56 PM,69.1,30.9,24,30.07,10.0,NW,8.1,18.4,N/A,,Clear,320,2013-10-03 19:56:00
1:56 PM,71.1,35.1,27,30.04,10.0,WNW,13.8,-,N/A,,Clear,290,2013-10-03 20:56:00
2:56 PM,72.0,36.0,27,30.02,10.0,WNW,12.7,-,N/A,,Clear,290,2013-10-03 21:56:00
3:56 PM,72.0,36.0,27,30.01,10.0,WNW,13.8,-,N/A,,Clear,290,2013-10-03 22:56:00
4:56 PM,71.1,34.0,26,30.02,10.0,WNW,9.2,-,N/A,,Clear,290,2013-10-03 23:56:00
5:56 PM,69.1,34.0,27,30.03,10.0,WNW,5.8,-,N/A,,Clear,300,2013-10-04 00:56:00
6:56 PM,62.1,37.0,39,30.06,10.0,Calm,Calm,-,N/A,,Clear,0,2013-10-04 01:56:00
7:56 PM,60.1,37.0,42,30.07,10.0,NW,5.8,-,N/A,,Clear,310,2013-10-04 02:56:00
9:56 PM,54.0,37.0,53,30.10,10.0,NNW,6.9,-,N/A,,Clear,330,2013-10-04 04:56:00
10:56 PM,54.0,36.0,51,30.10,10.0,North,4.6,-,N/A,,Clear,350,2013-10-04 05:56:00
11:56 PM,51.1,36.0,56,30.10,10.0,Calm,Calm,-,N/A,,Clear,0,2013-10-04 06:56:00